New Delhi, India

3:42 AM IST on April 22, 2018 (GMT +0530)
Indira Gandhi International

Weather History for VIDP - October, 2012

Change the Weather History Date:

Tuesday, October 16, 2012

  Actual Average Record
Temperature  
Mean Temperature 76 °F -  
Max Temperature 87 °F 84 °F 97 °F (2017)
Min Temperature 66 °F 61 °F 64 °F (2004)
Cooling Degree Days 12    
Growing Degree Days 26 (Base 50)    
Moisture  
Dew Point 56 °F    
Average Humidity 49    
Maximum Humidity 73    
Minimum Humidity 27    
Precipitation  
Precipitation 0.00 in - - ()
Sea Level Pressure  
Sea Level Pressure 30.00 in    
Wind  
Wind Speed 5 mph ()    
Max Wind Speed 12 mph    
Max Gust Speed 21 mph    
Visibility 2.5 miles    
Events      
Averages and records for this station are not official NWS values.
T = Trace of Precipitation, MM = Missing Value Source: Averaged Metar Reports

Daily Weather History Graph

Daily Weather History Graph

Search for Another Location

Airport or City:

Astronomy

Oct. 16, 2012 Rise Set
Actual Time 6:22 AM IST 5:50 PM IST
Civil Twilight 5:59 AM IST 6:14 PM IST
Nautical Twilight 5:31 AM IST 6:41 PM IST
Astronomical Twilight 5:04 AM IST 7:09 PM IST
Moon 7:04 AM IST (10/16) 6:23 PM IST (10/16)
Length of Visible Light 12h 15m
Length of Day
11h 27m
New Moon, 1% of the Moon is Illuminated
Oct 16
New Moon
Oct 22
First Quarter
Oct 30
Full
Nov 7
Last Quarter
Nov 14
New

Hourly Weather History & Observations

Time (IST) Temp. Heat Index Dew Point Humidity Pressure Visibility Wind Dir Wind Speed Gust Speed Precip Events Conditions
12:00 AM 71.6 °F - 55.4 °F 57% 30.01 in 1.6 mi NNW 9.2 mph 20.7 mph N/A   Haze
12:30 AM 71.6 °F - 55.4 °F 57% 30.01 in 1.6 mi NNW 11.5 mph 20.7 mph N/A   Haze
1:00 AM 69.8 °F - 55.4 °F 60% 30.01 in 1.7 mi WNW 9.2 mph 20.7 mph N/A   Haze
2:00 AM 69.8 °F - 55.4 °F 60% 29.98 in 2.5 mi NNE 4.6 mph - N/A   Haze
2:30 AM 69.8 °F - 55.4 °F 60% 29.98 in 2.8 mi North 5.8 mph - N/A   Haze
3:30 AM 69.8 °F - 57.2 °F 64% 29.98 in 3.1 mi NW 6.9 mph - N/A   Haze
4:00 AM 69.8 °F - 57.2 °F 64% 30.01 in 3.1 mi WSW 5.8 mph - N/A   Haze
4:30 AM 68.0 °F - 57.2 °F 68% 30.01 in 3.1 mi WSW 3.5 mph - N/A   Haze
5:00 AM 66.2 °F - 57.2 °F 73% 30.01 in 3.1 mi WSW 5.8 mph - N/A   Haze
5:30 AM 66.2 °F - 57.2 °F 73% 30.01 in 3.1 mi WSW 3.5 mph - N/A   Haze
6:00 AM 66.2 °F - 57.2 °F 73% 29.98 in 3.1 mi SSW 3.5 mph - N/A   Haze
6:30 AM 66.2 °F - 57.2 °F 73% 29.98 in 2.8 mi SSE 3.5 mph - N/A   Haze
7:00 AM 68.0 °F - 57.2 °F 68% 30.01 in 2.5 mi Calm Calm - N/A   Haze
7:30 AM 69.8 °F - 57.2 °F 64% 30.01 in 2.5 mi NNE 3.5 mph - N/A   Haze
8:00 AM 71.6 °F - 57.2 °F 60% 30.01 in 2.5 mi Calm Calm - N/A   Haze
8:30 AM 71.6 °F - 57.2 °F 60% 30.04 in 2.5 mi WSW 3.5 mph - N/A   Haze
9:30 AM 77.0 °F - 57.2 °F 50% 30.04 in 2.5 mi WSW 3.5 mph - N/A   Haze
10:00 AM 80.6 °F 80.8 °F 57.2 °F 45% 30.04 in 2.5 mi West 3.5 mph - N/A   Haze
10:30 AM 82.4 °F 82.0 °F 57.2 °F 42% 30.04 in 2.5 mi NNW 4.6 mph - N/A   Haze
11:00 AM 84.2 °F 83.0 °F 55.4 °F 37% 30.04 in 2.5 mi North 6.9 mph - N/A   Haze
11:30 AM 86.0 °F 84.2 °F 53.6 °F 33% 30.04 in 2.5 mi NNW 5.8 mph - N/A   Haze
12:00 PM 87.8 °F - 51.8 °F 29% 30.01 in 2.5 mi NNE 5.8 mph - N/A   Haze
12:30 PM 87.8 °F - 50.0 °F 27% 30.01 in 2.5 mi NNW 6.9 mph - N/A   Haze
1:00 PM 87.8 °F - 50.0 °F 27% 29.98 in 2.5 mi NNW 6.9 mph - N/A   Haze
1:30 PM 87.8 °F - 50.0 °F 27% 29.98 in 2.8 mi North 6.9 mph - N/A   Haze
2:00 PM 87.8 °F - 50.0 °F 27% 29.95 in 2.8 mi NNW 6.9 mph - N/A   Haze
3:00 PM 87.8 °F 85.7 °F 53.6 °F 31% 29.95 in 3.1 mi WNW 6.9 mph - N/A   Haze
3:30 PM 87.8 °F 85.7 °F 53.6 °F 31% 29.95 in 3.1 mi NW 6.9 mph - N/A   Haze
4:00 PM 87.8 °F 85.7 °F 53.6 °F 31% 29.95 in 3.1 mi WNW 5.8 mph - N/A   Haze
4:30 PM 87.8 °F 85.7 °F 53.6 °F 31% 29.95 in 3.1 mi NW 6.9 mph - N/A   Haze
5:00 PM 87.8 °F 85.7 °F 53.6 °F 31% 29.95 in 3.1 mi WNW 8.1 mph - N/A   Haze
5:30 PM 84.2 °F 82.8 °F 53.6 °F 35% 29.95 in 2.8 mi WNW 6.9 mph - N/A   Haze
6:00 PM 82.4 °F 81.7 °F 55.4 °F 39% 29.95 in 2.5 mi WNW 8.1 mph - N/A   Haze
6:30 PM 80.6 °F 80.5 °F 55.4 °F 42% 29.98 in 2.2 mi WNW 6.9 mph - N/A   Haze
7:00 PM 80.6 °F 80.8 °F 57.2 °F 45% 29.98 in - West 5.8 mph - N/A   Haze
8:00 PM 78.8 °F - 57.2 °F 47% 29.98 in 1.9 mi West 4.6 mph - N/A   Haze
8:30 PM 78.8 °F - 57.2 °F 47% 30.01 in 1.9 mi West 3.5 mph - N/A   Haze
9:00 PM 78.8 °F - 59.0 °F 51% 30.01 in 1.9 mi West 3.5 mph - N/A   Haze
9:30 PM 78.8 °F - 59.0 °F 51% 30.01 in 1.9 mi West 4.6 mph - N/A   Haze
10:00 PM 78.8 °F - 59.0 °F 51% 30.01 in 1.9 mi West 3.5 mph - N/A   Haze
10:30 PM 77.0 °F - 59.0 °F 54% 30.01 in 1.9 mi WNW 3.5 mph - N/A   Haze
11:00 PM 77.0 °F - 60.8 °F 57% 30.01 in 1.7 mi NNW 3.5 mph - N/A   Haze
11:30 PM 75.2 °F - 59.0 °F 57% 30.01 in 1.7 mi NW 3.5 mph - N/A   Haze